Location: Pasadena, ca
(34.1243°N, 118.1037°W)
Time: 21:52:36
(UTC-07:00)

Vanguard 2 - Visible Passes

Search period start: 18 June 2018 00:00
Search period end: 28 June 2018 00:00
Orbit: 553 x 2939 km, 32.9° (Epoch: 18 June)

Date Brightness Start Highest point End Pass type
(mag) Time Alt. Az. Time Alt. Az. Time Alt. Az.
18 Jun 8.7 04:09:37 21° SSW 04:12:10 28° SSE 04:16:06 10° E visible
19 Jun 8.2 04:26:24 18° SW 04:30:15 38° SSE 04:34:24 10° E visible
20 Jun 9.6 02:41:43 19° SE 02:41:43 19° SE 02:44:04 10° ESE visible
20 Jun 7.8 04:43:07 13° WSW 04:48:20 51° SSE 04:52:33 10° E visible
21 Jun 9.0 02:58:24 30° SSE 02:58:24 30° SSE 03:02:41 10° E visible
21 Jun 7.5 05:00:18 10° WSW 05:06:24 64° S 05:10:38 10° E visible
22 Jun 8.6 03:15:02 39° S 03:15:55 41° SSE 03:20:59 10° E visible
23 Jun 10.4 01:30:13 11° ESE 01:30:13 11° ESE 01:30:31 10° ESE visible
23 Jun 8.2 03:31:37 37° SW 03:34:03 52° SSE 03:39:10 10° E visible
24 Jun 9.8 01:46:44 22° ESE 01:46:44 22° ESE 01:49:10 10° E visible
24 Jun 8.0 03:48:07 28° WSW 03:52:09 64° SSE 03:57:15 10° E visible
25 Jun 9.2 02:03:12 36° SE 02:03:12 36° SE 02:07:31 10° E visible
25 Jun 7.9 04:04:34 19° WSW 04:10:16 73° S 04:15:17 10° E visible
26 Jun 8.7 02:19:32 53° SSE 02:19:32 53° SSE 02:25:43 10° E visible
26 Jun 7.8 04:20:55 12° W 04:28:23 80° S 04:33:19 10° E visible
27 Jun 10.5 00:34:27 14° E 00:34:27 14° E 00:35:21 10° E visible
27 Jun 8.5 02:35:48 55° SSW 02:37:26 64° SSE 02:43:49 10° E visible
27 Jun 7.8 04:38:47 10° W 04:46:30 81° S 04:51:20 10° E visible
27 Jun 11.4 22:25:03 10° S 22:25:41 11° S 22:25:41 11° S visible
